Flag for Canada Weather past 2 weeks in Whistler, British Columbia, Canada

Now
66 °F

Mild.


Feels Like: 66 °F
Forecast: 47 / 76 °F
Wind: 2 mph from West

Location: Squamish Airport

Current Time: Jul 27, 2015 at 8:46:43 PM

Latest Report: Jul 27, 2015 at 8:00 PM


Visibility: N/A

Pressure: 30.17 "Hg (27.89 "Hg at 674m altitude)

Humidity: 61%

Dew point: 53 °F

Location of WhistlerLocation

Historic Weather in Whistler — Graph

°F

Whistler temperature yesterday

Maximum temperature yesterday: 64 °F (at 3:00 PM)
Minimum temperature yesterday: 53 °F (at 11:00 PM)
Average temperature yesterday: 58 °F

Past Weeks' High & Low Weather Summary

 TemperatureHumidityPressure
High92 °F (Jul 19, 4:00 PM)100% (Jul 16, 4:00 AM)30.17 "Hg (Jul 16, 4:00 AM)
Low49 °F (Jul 27, 3:00 AM)20% (Jul 18, 4:00 PM)29.84 "Hg (Jul 22, 8:00 PM)
Average65 °F69%29.98 "Hg
* Reported Jul 12 7:00 PM — Jul 27 7:00 PM, Whistler, Weather by CustomWeather, © 2015

Note: Actual official high and low records may vary slightly from our data, if they occured in-between our weather recording intervals... More about our weather records

Advertising

Whistler weather history for previous 24 hours

 ConditionsComfort  
Time TempWeatherWind HumidityBarometerVisibility
7:00 PM
Mon, Jul 27
68 °FMild.7 mph57%30.16 "HgN/A
6:00 PM69 °FMild.7 mph53%30.15 "HgN/A
5:00 PM70 °FMild.7 mph55%30.15 "HgN/A
4:00 PM70 °FMild.7 mph50%30.14 "HgN/A
3:00 PM70 °FMild.8 mph45%30.14 "HgN/A
2:00 PM70 °FMild.8 mph50%30.15 "HgN/A
1:00 PM67 °FMild.7 mph58%30.16 "HgN/A
12:00 PM67 °FMild.9 mph60%30.16 "HgN/A
11:00 AM64 °FMild.2 mph69%30.16 "HgN/A
10:00 AM60 °FCool.1 mph77%30.17 "HgN/A
9:00 AM54 °FCool.No wind94%30.16 "HgN/A
8:00 AM54 °FCool.No wind93%30.16 "HgN/A
7:00 AM53 °FCool.1 mph95%30.15 "HgN/A
6:00 AM53 °FCool.1 mph95%30.13 "HgN/A
5:00 AM52 °FCool.No wind96%30.11 "HgN/A
4:00 AM52 °FCool.No wind97%30.10 "HgN/A
3:00 AM49 °FCool.1 mph100%30.10 "HgN/A
2:00 AM51 °FCool.1 mph96%30.09 "HgN/A
1:00 AM51 °FCool.No wind95%30.09 "HgN/A
12:00 AM52 °FCool.1 mph96%30.08 "HgN/A
11:00 PM
Sun, Jul 26
53 °FCool.1 mph95%30.08 "HgN/A
10:00 PM55 °FCool.2 mph94%30.08 "HgN/A
9:00 PM54 °FCool.1 mph99%30.06 "HgN/A
8:00 PM59 °FCool.2 mph84%30.05 "HgN/A
Weather by CustomWeather, © 2015

See weather overviewHow to use our weather pages